Location: Newark
(45.8833°N, 13.5000°E)
Time: 03:37:19
(UTC+00:00)

X-37B - Pass Details

Date: 03 October 2020
Orbit: 382 x 392 km, 45.0° (Epoch: 15 October)

Event Time Altitude Azimuth Distance (km) Brightness Sun altitude
Rises 18:10:43 0° 228° (SW) 2,256 5.0 -16.3°
Reaches altitude 10° 18:12:56 10° 217° (SW) 1,403 3.7 -16.7°
Enters shadow 18:15:21 27° 169° (SSE) 767 1.8 -17.1°
